Weather History for North Platte, NE

Change the Weather History Date:

Sunday, November 4, 2012

  Actual Average Record
Temperature  
Mean Temperature 44 °F 41 °F  
Max Temperature 64 °F 56 °F 80 °F (1909)
Min Temperature 24 °F 26 °F 2 °F (1991)
Degree Days  
Heating Degree Days 21 24  
Month to date heating degree days 82 92  
Since 1 July heating degree days 783 761  
Cooling Degree Days 0 0  
Month to date cooling degree days 0 0  
Year to date cooling degree days 1245 768  
Moisture  
Dew Point 32 °F    
Average Humidity 63    
Maximum Humidity 92    
Minimum Humidity 34    
Precipitation  
Precipitation T in 0.03 in 1.64 in (1922)
Month to date precipitation T 0.12  
Year to date precipitation 9.62 19.30  
Snow  
Snow 0.00 in 0.10 in 2.10 in (1967)
Month to date snowfall 0.0 0.5  
Since 1 July snowfall 2.2 2.8  
Since 1 September snowfall 2.2 2.8  
Snow Depth 0.00 in    
Sea Level Pressure  
Sea Level Pressure 30.12 in    
Wind  
Wind Speed 7 mph (WNW)    
Max Wind Speed 23 mph    
Max Gust Speed 29 mph    
Visibility 10 miles    
Events Rain    
T = Trace of Precipitation, MM = Missing Value Source: NWS Daily Summary

Daily Weather History Graph

Daily Weather History Graph

Search for Another Location

Airport:

Trip Planner

Search our weather history database for the weather conditions in past years. The results will help you decide how hot, cold, wet, or windy it might be!

Date:

Astronomy

Nov. 04, 2012 Rise Set
Actual Time 7:17 AM CST 5:34 PM CST
Civil Twilight 6:49 AM CST 6:02 PM CST
Nautical Twilight 6:16 AM CST 6:35 PM CST
Astronomical Twilight 5:44 AM CST 7:07 PM CST
Moon 10:13 PM CST (11/4) 12:03 PM CST (11/4)
Length of Visible Light 11h 13m
Length of Day
10h 16m
Waning Gibbous, 72% of the Moon is Illuminated
Nov 4
Waning Gibbous
Nov 6
Last Quarter
Nov 13
New
Nov 20
First Quarter
Nov 28
Full

Hourly Weather History & Observations

Time (CST) Temp. Windchill Dew Point Humidity Pressure Visibility Wind Dir Wind Speed Gust Speed Precip Events Conditions
12:53 AM 34.0 °F 28.0 °F 30.0 °F 85% 30.13 in 10.0 mi SE 6.9 mph - N/A   Clear
1:53 AM 33.8 °F - 30.2 °F 87% 30.10 in 10.0 mi Calm Calm - N/A   Clear
1:53 AM 28.0 °F - 26.1 °F 92% 30.11 in 10.0 mi Calm Calm - N/A   Clear
2:53 AM 30.0 °F 23.2 °F 27.0 °F 88% 30.10 in 10.0 mi WSW 6.9 mph - N/A   Clear
3:53 AM 28.9 °F 22.8 °F 26.1 °F 89% 30.10 in 10.0 mi West 5.8 mph - N/A   Clear
4:53 AM 24.1 °F 17.0 °F 21.9 °F 91% 30.12 in 10.0 mi NW 5.8 mph - N/A   Clear
5:53 AM 26.1 °F 20.5 °F 24.1 °F 92% 30.14 in 10.0 mi WNW 4.6 mph - N/A   Clear
6:53 AM 26.1 °F 19.4 °F 24.1 °F 92% 30.14 in 10.0 mi NW 5.8 mph - N/A   Clear
7:53 AM 28.0 °F - 25.0 °F 88% 30.14 in 10.0 mi Calm Calm - N/A   Clear
8:53 AM 35.1 °F 31.0 °F 30.9 °F 85% 30.14 in 10.0 mi WNW 4.6 mph - N/A   Clear
9:53 AM 39.9 °F 34.5 °F 33.1 °F 77% 30.13 in 10.0 mi WNW 8.1 mph - N/A   Clear
10:53 AM 48.0 °F - 34.0 °F 58% 30.11 in 10.0 mi West 4.6 mph - N/A   Clear
11:53 AM 54.0 °F - 34.0 °F 47% 30.09 in 10.0 mi NW 6.9 mph - N/A   Clear
12:53 PM 57.0 °F - 34.0 °F 42% 30.06 in 10.0 mi West 5.8 mph - N/A   Partly Cloudy
1:53 PM 59.0 °F - 33.1 °F 38% 30.05 in 10.0 mi West 6.9 mph - N/A   Mostly Cloudy
2:53 PM 62.1 °F - 33.1 °F 34% 30.05 in 10.0 mi West 4.6 mph - N/A   Overcast
3:53 PM 63.0 °F - 35.1 °F 35% 30.06 in 10.0 mi NNW 18.4 mph 24.2 mph N/A   Overcast
4:53 PM 55.9 °F - 39.0 °F 53% 30.12 in 10.0 mi North 16.1 mph 26.5 mph 0.00 in Rain Light Rain
5:53 PM 51.1 °F - 39.0 °F 63% 30.15 in 10.0 mi North 9.2 mph - N/A   Mostly Cloudy
6:53 PM 46.0 °F 43.9 °F 37.0 °F 71% 30.18 in 10.0 mi WNW 4.6 mph - N/A   Mostly Cloudy
7:53 PM 48.9 °F - 37.9 °F 66% 30.18 in 10.0 mi WNW 6.9 mph - N/A   Overcast
8:53 PM 48.0 °F - 37.0 °F 66% 30.18 in 10.0 mi NW 9.2 mph - N/A   Mostly Cloudy
9:53 PM 44.1 °F 39.5 °F 35.1 °F 71% 30.18 in 10.0 mi WNW 8.1 mph - N/A   Clear
10:53 PM 41.0 °F 35.8 °F 35.6 °F 81% 30.15 in 10.0 mi NW 8.1 mph - N/A   Clear